Overview Statistics Trail Chart Weather Telemetry Raw packets
 

This is the latest recevied weather packets stored in our database for station/object KV9E. If no packets are shown the sender has not sent any weather packets the latest 10 day(s).

<< 23 24 25 26 27 28 29 >>
Time Temp. Humidity Pressure Rain* Wind** Luminosity Snow
1788457606 32.22° C 58% 1017.9 hPa 0 mm - 604 W/m² -
1788457300 32.22° C 58% 1018.2 hPa 0 mm - 629 W/m² -
1788456995 32.22° C 60% 1018.3 hPa 0 mm - 619 W/m² -
1788456691 31.11° C 61% 1018.2 hPa 0 mm - 626 W/m² -
1788456406 31.11° C 62% 1018.3 hPa 0 mm - 556 W/m² -
1788456081 31.67° C 60% 1018.5 hPa 0 mm - 145 W/m² -
1788455780 31.67° C 59% 1018.6 hPa 0 mm - 140 W/m² -
1788455477 31.67° C 60% 1018.6 hPa 0 mm - 254 W/m² -
1788455175 32.22° C 59% 1018.4 hPa 0 mm - 123 W/m² -
1788454872 31.67° C 60% 1018.8 hPa 0 mm - 612 W/m² -
1788454569 31.67° C 61% 1018.8 hPa 0 mm - 345 W/m² -
1788454264 31.11° C 61% 1018.6 hPa 0 mm - 561 W/m² -
1788453959 31.11° C 61% 1018.8 hPa 0 mm - 576 W/m² -
1788453654 31.11° C 61% 1018.6 hPa 0 mm - 121 W/m² -
1788453349 31.11° C 62% 1018.9 hPa 0 mm - 164 W/m² -
1788453045 31.11° C 61% 1018.9 hPa 0 mm - 133 W/m² -
1788452741 30.56° C 63% 1019 hPa 0 mm - 116 W/m² -
1788452436 30.56° C 61% 1019 hPa 0 mm - 218 W/m² -
1788452126 30.56° C 62% 1019 hPa 0 mm - 360 W/m² -
1788451822 30.56° C 63% 1019 hPa 0 mm - 116 W/m² -
1788451521 30° C 64% 1019.1 hPa 0 mm - 85 W/m² -
1788451215 30° C 65% 1019.2 hPa 0 mm - 132 W/m² -
1788450909 30° C 63% 1019 hPa 0 mm - 69 W/m² -
1788450605 30° C 65% 1019.2 hPa 0 mm - 56 W/m² -
1788450300 30° C 64% 1019.2 hPa 0 mm - 55 W/m² -

* Rain latest hour (hover to see other rain measurements)
** Current wind speed in m/s (hover to see current wind gust speed)